Home > Weather > Mons > Past weeks

Flag for Belgium Weather for the Past 2 Weeks in Mons, Belgium

Now
32 °F

Passing clouds.


Feels Like: 27 °F
Forecast: 36 / 38 °F
Wind: 5 mph from East

Location: Chievres

Current Time: Feb 13, 2016 at 2:36:32 AM

Latest Report: Feb 13, 2016 at 1:55 AM


Visibility: N/A

Pressure: 29.36 "Hg

Humidity: 93%

Dew point: 30 °F

Location of MonsLocation

Historic Weather in Mons — Graph

°F

Mons Temperature Yesterday

Maximum temperature yesterday: 43 °F (at 1:55 PM)
Minimum temperature yesterday: 34 °F (at 3:55 AM)
Average temperature yesterday: 38 °F

High & Low Weather Summary for the Past Weeks

 TemperatureHumidityPressure
High54 °F (Jan 31, 6:55 PM)100% (Jan 30, 2:25 PM)30.36 "Hg (Jan 30, 2:25 PM)
Low34 °F (Feb 4, 4:25 AM)58% (Feb 7, 1:25 AM)28.91 "Hg (Feb 9, 12:25 PM)
Average44 °F86%29.79 "Hg
* Reported Jan 29 12:25 AM — Feb 13 12:55 AM, Mons, Weather by CustomWeather, © 2016

Note: Actual official high and low records may vary slightly from our data, if they occured in-between our weather recording intervals... More about our weather records

Advertising

Mons Weather History for the Previous 24 Hours

 ConditionsComfort  
Time TempWeatherWind HumidityBarometerVisibility
12:55 AM
Sat, Feb 13
34 °FPassing clouds.2 mph93%29.39 "HgN/A
12:25 AM34 °FPassing clouds.5 mph93%29.39 "HgN/A
11:55 PM
Fri, Feb 12
34 °FOvercast.5 mph93%29.39 "HgN/A
10:55 PM34 °FPassing clouds.5 mph93%29.39 "HgN/A
10:25 PM36 °FOvercast.5 mph87%29.39 "HgN/A
9:55 PM36 °FOvercast.3 mph87%29.39 "HgN/A
9:25 PM36 °FOvercast.3 mph87%29.39 "HgN/A
8:55 PM36 °FPassing clouds.6 mph87%29.39 "HgN/A
8:25 PM37 °FOvercast.6 mph75%29.39 "HgN/A
7:55 PM37 °FPassing clouds.7 mph81%29.39 "HgN/A
7:25 PM37 °FPassing clouds.7 mph75%29.39 "HgN/A
6:55 PM37 °FPassing clouds.7 mph81%29.39 "HgN/A
6:25 PM37 °FPassing clouds.8 mph81%29.36 "HgN/A
5:55 PM39 °FScattered clouds.8 mph75%29.36 "HgN/A
5:25 PM39 °FPartly sunny.9 mph70%29.36 "HgN/A
4:55 PM41 °FPassing clouds.9 mph70%29.36 "HgN/A
4:25 PM41 °FQuite cool.10 mph70%29.36 "HgN/A
3:55 PM43 °FPassing clouds.13 mph66%29.36 "HgN/A
2:55 PM43 °FPartly sunny.13 mph66%29.36 "HgN/A
2:25 PM43 °FPartly sunny.12 mph66%29.36 "HgN/A
1:55 PM43 °FPartly sunny.13 mph66%29.39 "HgN/A
1:25 PM41 °FScattered clouds.13 mph70%29.39 "HgN/A
12:55 PM39 °FScattered clouds.13 mph75%29.42 "HgN/A
12:25 PM39 °FPassing clouds.15 mph75%29.45 "HgN/A
11:55 AM41 °FScattered clouds.12 mph76%29.45 "HgN/A
11:25 AM39 °FScattered clouds.15 mph75%29.47 "HgN/A
10:55 AM39 °FPartly sunny.15 mph81%29.47 "HgN/A
10:25 AM37 °FPartly sunny.15 mph87%29.47 "HgN/A
9:55 AM37 °FPartly sunny.10 mph87%29.50 "HgN/A
9:25 AM37 °FLow clouds.10 mph87%29.50 "HgN/A
8:55 AM37 °FLow clouds.9 mph87%29.50 "HgN/A
8:25 AM37 °FLow clouds.9 mph93%29.50 "HgN/A
7:55 AM36 °FLow clouds.13 mph93%29.53 "HgN/A
7:25 AM36 °FLow clouds.10 mph100%29.53 "Hg6 mi
6:55 AM37 °FLow clouds.9 mph93%29.53 "Hg4 mi
6:25 AM37 °FLow clouds.9 mph93%29.56 "Hg4 mi
5:55 AM37 °FLow clouds.8 mph93%29.56 "Hg4 mi
5:25 AM36 °FMostly cloudy.7 mph100%29.59 "Hg3 mi
4:55 AM36 °FOvercast.8 mph100%29.59 "Hg5 mi
4:25 AM36 °FPartly cloudy.7 mph93%29.59 "Hg4 mi
3:55 AM34 °FChilly.5 mph93%29.59 "Hg4 mi
3:25 AM36 °FPassing clouds.7 mph93%29.59 "Hg6 mi
2:55 AM36 °FPassing clouds.8 mph93%29.59 "HgN/A
2:25 AM37 °FPassing clouds.6 mph93%29.62 "HgN/A
Weather by CustomWeather, © 2016

See weather overviewHow to use our weather pages